www.pogodaiklimat.ru

Погода и климат >> Архив погоды >> Французская Полинезия >> Рапа


ПОГОДА на Рапа

  • Прогноз погоды на Рапа
  • Монитор погоды на Рапа

АРХИВ ПОГОДЫ на Рапа

Время (UTC), дата Ветер
(напр.,м/с)
 
Видим.   Явления Облачность Т
(С)
Тd
(С)
f
(%)
Тe
(С)
Тes
(С)
Комфортность P
(гПа)
Po
(гПа)
Тmin
(С)
Tmax
(С)
R
(мм)
R24
(мм)
S
(см)
13 14.08 З 3 н/о н/о +21.4 +17.6 79 +26 +26 душно 1009.4 1009.2
14 14.08 З 4 н/о н/о +21.5 +17.5 78 +26 +26 душно 1009.5 1009.3
15 14.08 З 4
{16}
20 км 10/10 400 м
[Cu Sc]
+21.4 +17.8 80 +26 +26 душно 1009.9 1009.7
16 14.08 З 3 9000 м слаб. дождь 10/10 200 м
[Cu Sc]
+18.3 +16.1 87 +19 +19 1011.1 1010.9 2
17 14.08 ЮЗ 2 н/о в посл. час дождь 10/10 200 м
[Cu Sc]
+17.9 +15.2 84 +19 +19 1011.9 1011.7 2
18 14.08 ЮЗ 4
{13}
15 км в посл. час дождь 10/10 540 м
[Cu Sc]
+18.9 +15.2 79 +20 +20 1012.4 1012.2 4
19 14.08 СЗ 3 15 км осадки на расстоянии 9/9 600 м
[Cu Sc]
+19.0 +15.1 78 +21 +21 комфорт 1012.7 1012.5
20 14.08 З 2 н/о н/о +18.8 +15.1 79 +21 +21 комфорт 1012.9 1012.7
21 14.08 СЗ 2
{8}
30 км 9/9 540 м
[Cu Sc]
+20.1 +15.5 75 +23 +24 комфорт 1012.3 1012.1
22 14.08 З 2 н/о н/о +20.1 +15.5 75 +23 +23 комфорт 1011.6 1011.4
23 14.08 З 2 н/о н/о +18.6 +16.4 87 +20 +20 1011.4 1011.2 1
00 15.08 З 4
{9}
25 км в посл. час дождь 9/9 600 м
[Cu Sc]
+19.5 +16.0 80 +21 +22 комфорт 1010.8 1010.6 +17.5 1
01 15.08 З 2 30 км 9/9 600 м
[Cu Sc]
+19.9 +16.3 80 +23 +23 комфорт 1010.9 1010.7
02 15.08 З 3 н/о н/о +20.5 +14.4 68 +23 +23 комфорт 1011.4 1011.2
03 15.08 З 2
{10}
н/о н/о +20.0 +13.9 68 +23 +23 комфорт 1011.8 1011.6
04 15.08 З 2 н/о н/о +19.6 +14.0 70 +22 +22 комфорт 1012.1 1011.9
05 15.08 З 2 н/о н/о +19.2 +14.5 74 +21 +21 комфорт 1012.8 1012.6
06 15.08 З 5
{9}
н/о н/о +20.0 +15.2 74 +22 +22 комфорт 1013.1 1012.9
07 15.08 З 3 н/о н/о +20.2 +15.0 72 +23 +23 комфорт 1013.3 1013.1
08 15.08 З 2 н/о н/о +20.1 +15.3 74 +23 +23 комфорт 1013.1 1012.9
09 15.08 З 3
{9}
н/о н/о +19.9 +15.3 75 +23 +23 комфорт 1012.7 1012.5
10 15.08 З 2 н/о н/о +19.8 +14.8 73 +22 +22 комфорт 1012.8 1012.6
11 15.08 З 3 н/о н/о +20.0 +14.8 72 +23 +23 комфорт 1012.6 1012.4
12 15.08 З 6
{13}
н/о н/о +20.1 +14.7 71 +22 +22 комфорт 1012.3 1012.1 +21.5 +21.5
13 15.08 СЗ 3 н/о н/о +19.5 +14.5 73 +21 +21 комфорт 1012.2 1012.0
14 15.08 З 3 н/о н/о +18.9 +15.0 78 +20 +20 1012.5 1012.3 0.2
15 15.08 З 2
{13}
20 км {ливн. осадки, дождь} 8/8 600 м
[Cu Sc]
+19.2 +14.0 72 +21 +21 комфорт 1012.9 1012.7 0.2
16 15.08 З 2 25 км 5/5 600 м
[Cu med, cong]
+19.0 +13.8 72 +21 +21 комфорт 1013.6 1013.4
17 15.08 З 2 30 км 5/4 600 м
[Cu Sc Ci fib]
+19.7 +12.7 64 +22 +23 комфорт 1014.7 1014.5
18 15.08 СЗ 5
{11}
30 км {ливн. осадки, дождь} 5/4 750 м
[Cu Sc Ci fib]
+20.5 +12.5 60 +23 +24 комфорт 1015.2 1015.0
19 15.08 СЗ 4 н/о 6/6 600 м
[Cu med, cong]
+20.8 +13.2 62 +24 +26 комфорт 1015.6 1015.4
20 15.08 СЗ 2 35 км 5/5 600 м
[Cu med, cong]
+21.3 +13.2 60 +24 +29 комфорт 1016.0 1015.8
21 15.08 СЗ 3
{12}
35 км 5/5 700 м
[Cu med, cong]
+21.2 +12.9 59 +23 +29 комфорт 1015.8 1015.6
22 15.08 СЗ 3 н/о н/о +21.1 +13.3 61 +23 +23 комфорт 1015.5 1015.3
23 15.08 СЗ 3 35 км 6/6 600 м
[Cu Sc]
+21.2 +13.9 63 +24 +28 комфорт 1015.0 1014.8
00 16.08 СЗ 5
{13}
15 км осадки на расстоянии 8/8 700 м
[Cu Sc]
+20.6 +14.9 70 +23 +24 комфорт 1014.9 1014.7 +18.6
01 16.08 СЗ 2 35 км 6/6 600 м
[Cu Sc]
+20.5 +13.0 62 +23 +25 комфорт 1015.3 1015.1
02 16.08 З 2 н/о н/о +20.1 +13.5 66 +23 +23 комфорт 1015.9 1015.7
03 16.08 З 1
{8}
н/о н/о +19.6 +13.3 67 +22 +22 комфорт 1016.7 1016.5
04 16.08 З 1 н/о н/о +19.4 +12.9 66 +22 +22 комфорт 1017.6 1017.4
05 16.08 З 1 н/о н/о +19.1 +12.8 67 +21 +21 комфорт 1018.6 1018.4
06 16.08 СЗ 3
{8}
н/о н/о +19.2 +13.4 69 +21 +21 комфорт 1019.2 1019.0
07 16.08 З 1 н/о н/о +19.1 +12.8 67 +21 +21 комфорт 1019.5 1019.3
08 16.08 З 2 н/о н/о +19.0 +12.7 67 +21 +21 комфорт 1019.9 1019.7
09 16.08 З 2
{6}
н/о н/о +18.8 +12.8 68 +20 +20 1020.2 1020.0
10 16.08 З 1 н/о н/о +18.8 +12.5 67 +21 +21 комфорт 1020.3 1020.1
11 16.08 З 1 н/о н/о +18.7 +12.2 66 +20 +20 1020.4 1020.2
12 16.08 З 2
{7}
н/о н/о +18.4 +11.9 66 +19 +19 1019.9 1019.7 +21.7 +21.7
13 16.08 ЮЗ 1 н/о н/о +17.3 +12.6 74 +18 +18 1019.5 1019.3
14 16.08 ЮЗ 1 н/о н/о +17.0 +12.1 73 +19 +19 1019.9 1019.7
15 16.08 З 2
{9}
20 км 6/6 700 м
[Cu med, cong]
+18.7 +11.5 63 +20 +20 1020.7 1020.5
16 16.08 ЮЗ 1 25 км 5/5 600 м
[Cu Sc]
+18.1 +11.9 67 +19 +19 1021.5 1021.3
17 16.08 Ю 1 30 км 5/3 600 м
[Cu Sc Ci fib]
+17.7 +13.0 74 +19 +20 1022.2 1022.0
18 16.08 СЗ 2
{5}
30 км 5/3 700 м
[Cu med, cong Ci fib]
+19.8 +12.5 63 +22 +24 комфорт 1022.6 1022.4
19 16.08 СЗ 2 35 км 5/3 600 м
[Cu med, cong Ci fib]
+20.4 +12.6 61 +23 +28 комфорт 1023.0 1022.8
20 16.08 СЗ 2 35 км 5/4 600 м
[Cu med, cong Ci fib]
+21.0 +13.4 62 +24 +30 комфорт 1023.1 1022.9
21 16.08 СЗ 2
{9}
35 км 5/5 700 м
[Cu med, cong Ci fib]
+21.4 +13.3 60 +24 +31 комфорт 1022.9 1022.7
22 16.08 З 1 н/о н/о +21.0 +13.2 61 +25 +25 комфорт 1022.4 1022.2
23 16.08 З 1 35 км 4/3 600 м
[Cu med, cong Ci fib]
+21.3 +13.2 60 +24 +33 комфорт 1022.1 1021.9
00 17.08 З 2
{7}
35 км 4/1 700 м
[Cu med, cong Ci fib]
+21.6 +12.7 57 +24 +31 комфорт 1021.9 1021.7 +16.6
01 17.08 СЗ 1 35 км 5/3 600 м
[Cu med, cong Ci fib]
+21.6 +13.2 59 +24 +28 комфорт 1021.9 1021.7
02 17.08 ЮВ 1 н/о н/о +20.5 +12.2 59 +24 +24 комфорт 1022.0 1021.8
03 17.08 Ю 1
{3}
н/о н/о +18.6 +13.7 73 +21 +21 комфорт 1022.2 1022.0
04 17.08 ЮЗ 1 н/о н/о +16.8 +13.5 81 +18 +18 1022.8 1022.6
05 17.08 Ю 1 н/о н/о +16.1 +13.4 84 +17 +17 1023.3 1023.1
06 17.08 штиль 0
{1}
н/о н/о +15.9 +13.6 86 +16 +16 1023.7 1023.5
07 17.08 Ю 1 н/о н/о +15.5 +13.5 88 +17 +17 1024.3 1024.1
08 17.08 ЮЗ 1 н/о н/о +15.4 +13.6 89 +17 +17 1024.5 1024.3
09 17.08 штиль 0
{1}
н/о н/о +15.5 +13.9 90 +15 +15 1024.5 1024.3
10 17.08 Ю 1 н/о н/о +15.0 +13.0 88 +16 +16 1024.3 1024.1
11 17.08 ЮЗ 1 н/о н/о +14.6 +13.1 91 +16 +16 1024.2 1024.0
12 17.08 ЮЗ 1
{1}
н/о н/о +14.4 +12.8 90 +15 +15 1023.1 1022.9 +21.7 +21.7
13 17.08 Ю 1 н/о н/о +13.9 +12.5 91 +15 +15 1022.9 1022.7
14 17.08 Ю 1 н/о н/о +13.5 +12.2 92 +14 +14 1022.8 1022.6
15 17.08 З 1
{1}
25 км 3/1 750 м
[Cu hum Ci fib]
+13.4 +12.3 93 +14 +14 1023.2 1023.0
16 17.08 ЮЗ 1 30 км 5/1 600 м
[Cu med, cong Ci fib]
+13.5 +12.4 93 +14 +14 1023.6 1023.4
17 17.08 штиль 0 30 км 5/1 600 м
[Cu med, cong Ci fib]
+14.1 +13.1 94 +14 +15 1024.7 1024.5
18 17.08 штиль 0
{2}
35 км 4/1 700 м
[Cu hum Ci fib]
+16.5 +15.0 91 +16 +20 1024.5 1024.3
19 17.08 СВ 2 40 км 4/1 600 м
[Cu med, cong Ci fib]
+19.8 +13.5 67 +22 +29 комфорт 1024.2 1024.0
20 17.08 СВ 2 40 км 5/4 600 м
[Cu med, cong Ci fib]
+20.7 +13.9 65 +24 +30 комфорт 1023.7 1023.5
21 17.08 СВ 2
{6}
40 км 5/5 700 м
[Cu med, cong Ci fib]
+20.5 +13.5 64 +23 +30 комфорт 1023.7 1023.5
22 17.08 СВ 2 н/о н/о +21.0 +14.2 65 +25 +25 комфорт 1023.3 1023.1
23 17.08 В 3 35 км 8/5 600 м
[Cu Sc Ci fib]
+21.0 +14.6 67 +25 +29 комфорт 1022.4 1022.2
00 18.08 В 6
{8}
35 км 6/5 700 м
[Cu Sc Ci fib]
+20.4 +14.5 69 +23 +24 комфорт 1021.5 1021.3 +13.3
01 18.08 В 2 30 км 9/5 600 м
[Cu Sc Ci fib]
+20.5 +13.7 65 +24 +25 комфорт 1022.2 1022.0
02 18.08 СВ 3 н/о н/о +19.8 +14.6 72 +22 +22 комфорт 1022.2 1022.0
03 18.08 СВ 3
{7}
н/о н/о +19.0 +15.1 78 +21 +21 комфорт 1023.2 1023.0
04 18.08 СВ 4 н/о н/о +19.4 +15.5 78 +21 +21 комфорт 1023.0 1022.8
05 18.08 В 4 н/о н/о +18.7 +15.8 83 +20 +20 1022.8 1022.6
06 18.08 СВ 6
{9}
н/о н/о +19.2 +15.5 79 +20 +20 1022.8 1022.6
07 18.08 СВ 3 н/о н/о +19.3 +15.8 80 +21 +21 комфорт 1022.9 1022.7
08 18.08 СВ 2 н/о н/о +19.3 +15.2 77 +22 +22 комфорт 1022.5 1022.3
09 18.08 СВ 2
{9}
н/о н/о +19.3 +15.8 80 +22 +22 комфорт 1022.2 1022.0
10 18.08 С 3 н/о н/о +19.7 +15.1 75 +22 +22 комфорт 1021.4 1021.2
11 18.08 С 4 н/о н/о +20.1 +14.7 71 +23 +23 комфорт 1020.1 1019.9
12 18.08 С 6
{15}
н/о н/о +20.1 +14.9 72 +22 +22 комфорт 1019.4 1019.2 +21.6 +21.6
13 18.08 СВ 2 н/о н/о +20.2 +15.4 74 +23 +23 комфорт 1019.1 1018.9
14 18.08 С 3 н/о н/о +20.3 +15.5 74 +23 +23 комфорт 1017.9 1017.7
15 18.08 С 3
{13}
15 км осадки на расстоянии 10/10 600 м
[Cu Sc]
+20.4 +15.8 75 +24 +24 комфорт 1017.7 1017.5
16 18.08 С 2 н/о в посл. час дождь 10/10 600 м
[Cu Sc]
+19.7 +17.1 85 +23 +23 комфорт 1017.6 1017.4 0.6
17 18.08 С 2 25 км 10/10 300 м
[Cu Sc]
+20.6 +17.0 80 +25 +25 комфорт 1017.4 1017.2
18 18.08 С 5
{15}
25 км {дождь} 10/10 480 м
[Cu Sc]
+21.0 +17.6 81 +25 +25 комфорт 1017.1 1016.9 0.6
19 18.08 СЗ 4 25 км 10/10 300 м
[Cu Sc]
+21.4 +17.8 80 +26 +26 душно 1017.0 1016.8
20 18.08 СЗ 4 25 км 10/10 300 м
[Cu Sc]
+21.6 +18.6 83 +26 +26 душно 1017.2 1017.0
21 18.08 СЗ 3
{13}
25 км 10/10 480 м
[Cu Sc]
+21.8 +18.8 83 +27 +27 душно 1016.7 1016.5
22 18.08 СЗ 4 н/о н/о +22.0 +19.0 83 +27 +27 душно 1016.2 1016.0
23 18.08 СЗ 4 10 км слаб. дождь 10/10 300 м
[Cu Sc]
+21.8 +19.0 84 +27 +27 душно 1015.3 1015.1 0.0
00 19.08 СЗ 7
{15}
15 км в посл. час дождь 10/10 400 м
[Cu Sc]
+21.9 +19.1 84 +27 +27 душно 1014.6 1014.4 +18.3 0.6
01 19.08 СЗ 3 9000 м слаб. дождь 10/10 100 м
[Cu Sc]
+18.9 +16.9 88 +21 +21 комфорт 1015.4 1015.2 2
02 19.08 З 2 н/о н/о +18.4 +16.4 88 +20 +20 1015.3 1015.1 0.8
03 19.08 СЗ 3
{13}
н/о н/о +18.9 +17.2 90 +20 +20 1016.2 1016.0 7
04 19.08 ЮЗ 1 н/о н/о +17.8 +15.6 87 +19 +19 1016.0 1015.8 1
05 19.08 ЮЗ 1 н/о н/о +18.1 +15.7 86 +19 +19 1016.2 1016.0 0.0
06 19.08 ЮЗ 3
{8}
н/о н/о +19.3 +15.4 78 +21 +21 комфорт 1016.7 1016.5 1
07 19.08 ЮЗ 2 н/о н/о +19.2 +14.5 74 +21 +21 комфорт 1016.9 1016.7 0.0
08 19.08 ЮЗ 2 н/о н/о +19.2 +14.2 73 +21 +21 комфорт 1016.6 1016.4
09 19.08 ЮЗ 2
{8}
н/о н/о +19.1 +13.9 72 +21 +21 комфорт 1016.5 1016.3 0.0
10 19.08 ЮЗ 2 н/о н/о +19.1 +14.4 74 +21 +21 комфорт 1017.3 1017.1
11 19.08 ЮЗ 1 н/о н/о +18.3 +12.9 71 +20 +20 1016.6 1016.4
12 19.08 Ю 1
{5}
н/о н/о +17.1 +12.8 76 +18 +18 1016.1 1015.9 +22.1 +22.1
13 19.08 ЮЗ 1 н/о н/о +15.3 +13.0 86 +17 +17 1015.4 1015.2
14 19.08 З 1 н/о н/о +16.0 +13.3 84 +17 +17 1016.7 1016.5
15 19.08 Ю 1
{7}
20 км 5/5 700 м
[Cu Sc]
+16.5 +12.6 78 +18 +18 1017.0 1016.8
16 19.08 Ю 1 25 км 5/5 600 м
[Cu Sc]
+15.1 +12.8 86 +16 +16 1017.7 1017.5
17 19.08 Ю 1 30 км 8/6 600 м
[Cu Sc Ci sp]
+15.7 +13.5 87 +17 +17 1018.6 1018.4
18 19.08 штиль 0
{2}
30 км 9/9 700 м
[Cu Sc]
+18.2 +13.9 76 +18 +19 1018.9 1018.7
19 19.08 ЮЗ 1 30 км 6/4 600 м
[Cu Sc Ci sp]
+19.5 +12.0 62 +22 +28 комфорт 1019.0 1018.8
20 19.08 В 1 35 км 6/3 600 м
[Cu Sc Ci sp]
+20.2 +12.9 63 +23 +31 комфорт 1019.2 1019.0
21 19.08 В 2
{6}
35 км 4/1 700 м
[Cu hum Ci sp]
+20.2 +12.7 62 +23 +34 комфорт 1018.8 1018.6
22 19.08 В 2 н/о н/о +20.7 +13.2 62 +24 +24 комфорт 1018.3 1018.1
23 19.08 В 1 35 км 10/4 600 м
[Cu med, cong Ci sp]
+20.7 +12.4 59 +24 +31 комфорт 1018.3 1018.1
00 20.08 СВ 3
{5}
35 км 4/1 700 м
[Cu hum Ci sp]
+20.2 +12.7 62 +23 +29 комфорт 1018.1 1017.9 +14.9
01 20.08 СВ 1 35 км 9/4 600 м
[Cu med, cong Ci sp]
+19.7 +12.9 65 +22 +25 комфорт 1018.3 1018.1
02 20.08 В 2 н/о н/о +19.2 +13.1 68 +21 +21 комфорт 1018.2 1018.0
03 20.08 В 2
{6}
н/о н/о +19.0 +13.0 68 +21 +21 комфорт 1018.6 1018.4
04 20.08 В 2 н/о н/о +18.7 +12.9 69 +20 +20 1018.9 1018.7
05 20.08 В 2 н/о н/о +18.8 +13.4 71 +20 +20 1019.4 1019.2
06 20.08 В 2
{7}
н/о н/о +18.8 +13.2 70 +20 +20 1019.5 1019.3
07 20.08 В 2 н/о н/о +19.2 +14.0 72 +21 +21 комфорт 1019.2 1019.0
08 20.08 В 2 н/о н/о +18.8 +15.8 83 +20 +20 1019.3 1019.1
09 20.08 СВ 3
{7}
н/о н/о +18.7 +17.4 92 +20 +20 1019.1 1018.9
10 20.08 В 3 н/о н/о +18.9 +17.2 90 +21 +21 комфорт 1018.2 1018.0 0.2
11 20.08 СВ 2 н/о н/о +19.2 +17.3 89 +22 +22 комфорт 1017.9 1017.7
12 20.08 СВ 2
{8}
н/о н/о +19.2 +18.0 93 +22 +22 комфорт 1017.8 1017.6 +21.0 +21.0 0.8
13 20.08 СВ 1 н/о н/о +19.4 +18.2 93 +23 +23 комфорт 1017.0 1016.8 0.8
14 20.08 СВ 1 н/о н/о +19.7 +18.4 92 +23 +23 комфорт 1017.0 1016.8 0.2
15 20.08 СЗ 1
{8}
20 км в посл. час дождь 10/10 180 м
[Cu Sc]
+20.4 +18.7 90 +25 +25 комфорт 1017.4 1017.2 1
16 20.08 С 2
{6}
25 км 9/9 200 м
[Cu Sc]
+20.7 +18.8 89 +25 +25 комфорт 1017.9 1017.7
17 20.08 СЗ 2
{6}
н/о слаб. дождь 10/10 200 м
[Cu Sc]
+21.0 +19.1 89 +26 +26 душно 1018.8 1018.6 0.0
18 20.08 СВ 4
{12}
15 км в посл. час дождь 10/10 240 м
[Cu Sc]
+21.2 +19.3 89 +26 +26 душно 1018.3 1018.1 1
19 20.08 С 2 25 км 9/9 200 м
[Cu Sc]
+21.6 +19.7 89 +27 +28 душно 1018.2 1018.0
20 20.08 СЗ 2 25 км 9/9 200 м
[Cu Sc]
+21.6 +19.7 89 +27 +28 душно 1017.9 1017.7
21 20.08 С 3
{12}
15 км осадки на расстоянии 9/9 180 м
[Cu Sc]
+21.7 +19.8 89 +27 +28 душно 1017.5 1017.3
22 20.08 С 2 н/о н/о +22.1 +19.8 87 +28 +28 душно 1016.5 1016.3
23 20.08 С 3 н/о н/о +22.1 +20.0 88 +28 +28 душно 1015.3 1015.1
00 21.08 С 5
{18}
25 км шквал 9/9 240 м
[Cu Sc]
+22.4 +19.9 86 +29 +29 очень
душно
1015.0 1014.8 +18.3
01 21.08 СЗ 3 н/о 9/9 200 м
[Cu Sc]
+22.4 +19.9 86 +29 +29 очень
душно
1014.4 1014.2
02 21.08 С 4 н/о н/о +22.5 +20.2 87 +29 +29 очень
душно
1014.5 1014.3
03 21.08 СЗ 4
{15}
н/о н/о +22.5 +20.6 89 +29 +29 очень
душно
1014.9 1014.7
04 21.08 СЗ 3 н/о н/о +22.5 +20.6 89 +29 +29 очень
душно
1015.2 1015.0
05 21.08 С 4 н/о н/о +22.6 +20.9 90 +30 +30 очень
душно
1015.2 1015.0
06 21.08 СЗ 5
{15}
н/о н/о +22.6 +21.1 91 +30 +30 очень
душно
1015.7 1015.5
07 21.08 СЗ 3 н/о н/о +22.5 +21.0 91 +29 +29 очень
душно
1015.2 1015.0 0.6
08 21.08 СЗ 4 н/о н/о +22.5 +21.0 91 +29 +29 очень
душно
1015.0 1014.8 0.8
09 21.08 СЗ 3
{15}
н/о н/о +23.0 +20.7 87 +30 +30 очень
душно
1014.8 1014.6 2
10 21.08 З 5 н/о н/о +23.7 +20.8 84 +30 +30 очень
душно
1014.5 1014.3
11 21.08 З 5 н/о н/о +23.7 +20.6 83 +30 +30 очень
душно
1014.0 1013.8
12 21.08 СЗ 11
{23}
н/о н/о +23.5 +20.8 85 +29 +29 душно 1013.1 1012.9 +23.9 +23.9 0.2
13 21.08 З 2 н/о н/о +21.0 +19.1 89 +26 +26 душно 1013.5 1013.3 5
14 21.08 З 1 н/о н/о +20.8 +19.6 93 +26 +26 душно 1013.3 1013.1 3

 

Местоположение метеостанции Рапа (Французская Полинезия): широта -27.61 долгота -144.30 высота над уровнем моря 2 м.

В архиве по умолчанию представлена погода на Рапа за последнюю неделю. Архивные данные за месяц целиком и за предыдущие месяцы, начиная с января 2011 года, Вы можете получить, выбрав интересующий диапазон дат из раскрывающегося списка и нажав кнопку "Ввод!".


*Определитесь, кто Вы:
робот инопланетянин человек

Внимание! Время в таблицах - всемирное. Для получения местного времени необходимо прибавить поправку, которая равна -10 ч.

Смотрите также архив погоды в соседних городах и на ближайших метеорологических станциях:

Погода на Тубуаи (Французская Полинезия) (697 км)
Погода в Херехеретуэ (Французская Полинезия) (861 км)
Погода в Рикитее (Французская Полинезия) (1068 км)
Погода на Хао (Французская Полинезия) (1118 км)
Погода на Анаа (Французская Полинезия) (1147 км)
Погода в Таутире (Французская Полинезия) (1204 км)
Погода в Таити Фааа (Французская Полинезия) (1244 км)
Погода на Острове Питкерн (Питкерн) (1442 км)
Погода в Бора-Бора аэропорту (Французская Полинезия) (1458 км)
Погода на Такароа (Французская Полинезия) (1462 км)

Пояснения к столбцам:

Ветер - указаны скорость ветра в м/с - средняя за 10 мин, порывы в срок и между сроками (в фигурных скобках) и направление, откуда дует ветер: С - северный, СВ - северо-восточный, В - восточный, ЮВ - юго-восточный, Ю - южный, ЮЗ - юго-западный, З - западный, СЗ - северо-западный.
Видимость - горизонтальная дальность видимости в метрах или километрах. При видимости от 1 до 10 км при отсутствии осадков обычно наблюдается дымка, при ухудшении видимости до 1 км и менее - туман. В сухую погоду видимость может ухудшаться дымом, пылью или мглою.
Явления - указаны атмосферные явления, наблюдавшиеся в срок или в последний час перед сроком; фигурными скобками обозначены явления, наблюдавшиеся между сроками (за 1-3 часа до срока); квадратными скобками обозначены град или гололедные отложения с указанием их диаметра в мм.
Облачность - указаны через наклонную черту общая и нижняя облачность в баллах и высота нижней границы облаков в метрах; квадратными скобками обозначены формы облаков: Ci - перистые, Cs - перисто-слоистые, Cc - перисто-кучевые, Ac - высококучевые, As - высокослоистые, Sc - слоисто-кучевые, Ns - слоисто-дождевые, Cu - кучевые, Cb - кучево-дождевые. Подробнее классификацию облаков см. в Атласе облаков (PDF).
T - Температура воздуха - температура, измеренная на высоте 2 м над землей.
Td - Температура точки росы - температура, при понижении до которой содержащийся в воздухе водяной пар достигнет насыщения.
f - Относительная влажность воздуха - влажноcть воздуха, измеренная на высоте 2 м над землей.
Te - Эффективная температура - температура, которую ощущает одетый по сезону человек в тени. Характеристика душности погоды. При расчете учитывается влияние влажности воздуха и скорости ветра на теплоощущения человека.
Tes - Эффективная температура на солнце - температура, которую ощущает человек, с поправкой на солнечный нагрев. Характеристика знойности погоды. Зависит от высоты солнца над горизонтом, облачности и скорости ветра. Ночью, в пасмурную погоду, а также при ветре 12 м/с и более поправка равна нулю.
P - Атмосферное давление - приведенное к уровню моря атмосферное давление.
Po - Атмосферное давление - измеренное на уровне метеостанции атмосферное давление.
Tmin - Минимальная температура - минимум температуры воздуха на высоте 2 м над землей.
Tmax - Максимальная температура - максимум температуры воздуха на высоте 2 м над землей.
R - Количество осадков - Количество выпавших осадков за период времени, мм. При наведении курсора мыши на число - период времени, за который выпало указанное количество осадков.
R24 - Количество осадков - Количество выпавших осадков за 24 часа, мм.
S - Снежный покров - Высота снежного покрова, см. При наведении курсора мыши на число - состояние снежного покрова и степень покрытия местности в баллах.